Date String (YYYY-MM-DD hh:mm:ss) UTC,Instrument flags,absolute air pressure of the measurement (hPa),sample flow rate (lpm),inlet stack bypass flow (lpm),air temperature of the measurement (°C),ambient temperature measured by the external sensor (°C),aerosol sample conditioner tube jacket temperature (°C),OPC LED temperature (°C),internal box temperature (°C),relative humidity of the measurement (%),span deviation,mass concentration of particles derived from Lorenz-Mie calculation of OPC scattering (μg/m³),mass concentration of particles derived from Lorenz-Mie calculation of OPC scattering (μg/m³),mass concentration of particles derived from Lorenz-Mie calculation of OPC scattering (μg/m³)
DateTimeUTC,F1_M11,P_M11,Q1_M11,Q2_M11,T1_M11,T2_M11,T3_M11,T4_M11,T5_M11,U1_M11,ZSPAN_M11,X0_M11,X2_M11,X1_M11
2024-02-05 13:00:00,SystemResetWarning,0829.0,4.99,000.00,018.4,017.8,000.0,027.0,020.0,17.7,0000.0,0007.00,0004.38,0004.09
2024-02-05 13:01:00,SystemResetWarning,0829.0,5.00,000.00,018.4,017.7,000.0,027.0,020.0,17.7,0000.0,0007.01,0004.38,0004.10
2024-02-05 13:02:00,SystemResetWarning,0828.9,5.01,000.00,018.4,017.7,000.0,027.0,020.0,17.7,0000.0,0007.24,0004.41,0004.12
2024-02-05 13:03:00,SystemResetWarning,0828.9,5.00,000.00,018.4,017.6,000.0,027.0,020.0,17.7,0000.0,0007.31,0004.45,0004.15
2024-02-05 13:04:00,SystemResetWarning,0829.0,5.00,000.00,018.4,017.6,000.0,026.9,020.0,17.6,0000.0,0007.56,0004.49,0004.16
2024-02-05 13:05:00,SystemResetWarning,0828.9,4.99,000.00,018.4,017.6,000.0,026.9,020.0,17.6,0000.0,0007.93,0004.50,0004.17
2024-02-05 13:06:00,SystemResetWarning,0829.0,4.99,000.00,018.4,017.6,000.0,026.9,020.0,17.6,0000.0,0007.90,0004.51,0004.18
2024-02-05 13:07:00,SystemResetWarning,0829.0,5.00,000.00,018.3,017.6,000.0,026.9,020.0,17.6,0000.0,0007.85,0004.50,0004.17
2024-02-05 13:08:00,SystemResetWarning,0828.9,4.99,000.00,018.3,017.6,000.0,026.9,020.0,17.7,0000.0,0007.82,0004.48,0004.16
2024-02-05 13:09:00,SystemResetWarning,0829.0,5.00,000.00,018.3,017.6,000.0,026.9,020.0,17.7,0000.0,0007.72,0004.43,0004.14
2024-02-05 13:10:00,SystemResetWarning,0829.0,5.01,000.00,018.3,017.6,000.0,026.9,020.0,17.7,0000.0,0007.73,0004.41,0004.13
2024-02-05 13:11:00,SystemResetWarning,0829.0,5.00,000.00,018.3,017.6,000.0,026.9,020.0,17.7,0000.0,0007.68,0004.38,0004.11
2024-02-05 13:12:00,SystemResetWarning,0829.0,5.01,000.00,018.3,017.7,000.0,026.9,020.1,17.7,0000.0,0007.72,0004.40,0004.12
2024-02-05 13:13:00,SystemResetWarning,0829.1,5.00,000.00,018.5,018.3,000.0,027.1,020.6,17.6,0000.0,0007.65,0004.40,0004.13
2024-02-05 13:14:00,SystemResetWarning,0829.1,5.00,000.00,018.7,019.0,000.0,027.1,020.9,17.3,0000.0,0007.54,0004.40,0004.13
2024-02-05 13:15:00,SystemResetWarning,0829.0,4.99,000.00,018.7,018.9,000.0,027.0,020.8,17.2,0000.0,0007.31,0004.39,0004.13
2024-02-05 13:16:00,SystemResetWarning,0829.0,4.99,000.00,018.7,018.7,000.0,027.0,020.5,17.2,0000.0,0006.74,0004.39,0004.13
2024-02-05 13:17:00,SystemResetWarning,0828.9,5.01,000.00,018.7,018.6,000.0,027.0,020.4,17.3,0000.0,0006.69,0004.40,0004.15
2024-02-05 13:18:00,SystemResetWarning,0829.0,5.00,000.00,018.7,018.4,000.0,026.9,020.3,17.3,0000.0,0007.30,0004.43,0004.18
2024-02-05 13:19:00,SystemResetWarning,0829.1,5.00,000.00,018.6,018.3,000.0,026.9,020.3,17.4,0000.0,0007.94,0004.45,0004.20
2024-02-05 13:20:00,SystemResetWarning,0829.1,5.00,000.00,018.6,018.2,000.0,026.9,020.2,17.4,0000.0,0008.03,0004.47,0004.21
2024-02-05 13:21:00,SystemResetWarning,0829.1,4.99,000.00,018.6,018.1,000.0,026.9,020.1,17.4,0000.0,0008.09,0004.46,0004.22
2024-02-05 13:22:00,SystemResetWarning,0829.1,5.01,000.00,018.5,018.0,000.0,026.9,020.1,17.5,0000.0,0008.25,0004.50,0004.23
2024-02-05 13:23:00,SystemResetWarning,0829.0,5.01,000.00,018.5,017.9,000.0,026.9,020.1,17.5,0000.0,0008.34,0004.50,0004.23
2024-02-05 13:24:00,SystemResetWarning,0829.0,5.00,000.00,018.5,017.9,000.0,026.8,020.0,17.4,0000.0,0009.04,0004.51,0004.25
2024-02-05 13:25:00,SystemResetWarning,0829.0,4.99,000.00,018.4,017.8,000.0,026.8,020.0,17.5,0000.0,0008.97,0004.49,0004.27
2024-02-05 13:26:00,SystemResetWarning,0829.0,5.00,000.00,018.4,017.8,000.0,026.8,020.0,17.5,0000.0,0008.94,0004.48,0004.28
2024-02-05 13:27:00,SystemResetWarning,0829.1,5.00,000.00,018.4,017.7,000.0,026.8,020.0,17.6,0000.0,0009.03,0004.51,0004.30
2024-02-05 13:28:00,SystemResetWarning,0829.1,5.02,000.00,018.4,017.7,000.0,026.9,020.0,17.6,0000.0,0009.07,0004.50,0004.28
2024-02-05 13:29:00,SystemResetWarning,0829.1,5.00,000.00,018.4,017.7,000.0,026.9,020.0,17.6,0000.0,0008.84,0004.49,0004.27
2024-02-05 13:30:00,SystemResetWarning,0829.1,5.00,000.00,018.4,017.7,000.0,026.9,020.0,17.7,0000.0,0008.45,0004.54,0004.30
2024-02-05 13:31:00,SystemResetWarning,0829.1,5.00,000.00,018.4,017.7,000.0,026.9,020.0,17.7,0000.0,0008.28,0004.56,0004.32
2024-02-05 13:32:00,SystemResetWarning,0829.1,5.00,000.00,018.3,017.6,000.0,026.9,020.0,17.6,0000.0,0008.19,0004.59,0004.36
2024-02-05 13:33:00,SystemResetWarning,0829.1,4.99,000.00,018.3,017.6,000.0,026.9,020.0,17.7,0000.0,0008.29,0004.62,0004.39
2024-02-05 13:34:00,SystemResetWarning,0829.1,4.99,000.00,018.3,017.6,000.0,026.9,020.0,17.7,0000.0,0009.02,0004.64,0004.40
2024-02-05 13:35:00,SystemResetWarning,0829.1,5.01,000.00,018.3,017.7,000.0,026.9,020.1,17.7,0000.0,0008.48,0004.64,0004.39
2024-02-05 13:36:00,SystemResetWarning,0829.2,5.01,000.00,018.5,018.4,000.0,027.0,020.6,17.6,0000.0,0008.38,0004.65,0004.36
2024-02-05 13:37:00,SystemResetWarning,0829.2,4.99,000.00,018.7,018.9,000.0,027.1,020.9,17.4,0000.0,0008.41,0004.65,0004.34
2024-02-05 13:38:00,SystemResetWarning,0829.2,4.98,000.00,018.7,018.9,000.0,027.0,020.8,17.3,0000.0,0008.27,0004.63,0004.34
2024-02-05 13:39:00,SystemResetWarning,0829.0,5.00,000.00,018.7,018.7,000.0,027.0,020.6,17.3,0000.0,0008.26,0004.64,0004.35
2024-02-05 13:40:00,SystemResetWarning,0829.0,5.01,000.00,018.7,018.6,000.0,026.9,020.4,17.3,0000.0,0008.21,0004.65,0004.36
2024-02-05 13:41:00,SystemResetWarning,0828.9,5.00,000.00,018.7,018.4,000.0,026.9,020.3,17.4,0000.0,0008.13,0004.62,0004.33
2024-02-05 13:42:00,SystemResetWarning,0829.0,5.00,000.00,018.6,018.3,000.0,026.9,020.3,17.4,0000.0,0008.17,0004.62,0004.33
2024-02-05 13:43:00,SystemResetWarning,0829.1,5.00,000.00,018.6,018.2,000.0,026.9,020.2,17.5,0000.0,0008.15,0004.61,0004.31
2024-02-05 13:44:00,SystemResetWarning,0829.1,5.00,000.00,018.6,018.1,000.0,026.9,020.2,17.6,0000.0,0007.92,0004.57,0004.29
2024-02-05 13:45:00,SystemResetWarning,0829.1,4.99,000.00,018.5,018.0,000.0,026.9,020.1,17.6,0000.0,0007.05,0004.58,0004.29
2024-02-05 13:46:00,SystemResetWarning,0829.1,5.00,000.00,018.5,017.9,000.0,026.9,020.1,17.6,0000.7,0007.00,0004.58,0004.30
2024-02-05 13:47:00,SystemResetWarning,0829.0,5.01,000.00,018.5,017.9,000.0,026.8,020.1,17.6,0000.4,0006.97,0004.57,0004.31
2024-02-05 13:48:00,SystemResetWarning,0829.1,5.01,000.00,018.4,017.8,000.0,026.8,020.0,17.6,0000.0,0006.91,0004.55,0004.32
2024-02-05 13:49:00,SystemResetWarning,0829.1,5.00,000.00,018.4,017.8,000.0,026.9,020.0,17.6,0000.0,0007.03,0004.55,0004.32
2024-02-05 13:50:00,SystemResetWarning,0829.1,5.00,000.00,018.4,017.7,000.0,026.8,020.0,17.6,0000.0,0007.11,0004.55,0004.31
2024-02-05 13:51:00,SystemResetWarning,0829.2,5.00,000.00,018.4,017.7,000.0,026.9,020.0,17.5,0000.0,0007.29,0004.53,0004.30
2024-02-05 13:52:00,SystemResetWarning,0829.2,4.99,000.00,018.4,017.7,000.0,026.8,020.0,17.6,0001.5,0008.23,0004.52,0004.30
2024-02-05 13:53:00,SystemResetWarning,0829.1,4.98,000.00,018.4,017.7,000.0,026.8,020.0,17.6,0000.0,0008.23,0004.53,0004.30
2024-02-05 13:54:00,SystemResetWarning,0829.1,5.01,000.00,018.3,017.6,000.0,026.8,020.0,17.6,0000.0,0008.24,0004.54,0004.30
2024-02-05 13:55:00,SystemResetWarning,0829.1,5.01,000.00,018.3,017.6,000.0,026.9,020.0,17.7,0000.0,0008.31,0004.57,0004.33
2024-02-05 13:56:00,SystemResetWarning,0829.0,5.00,000.00,018.3,017.6,000.0,026.9,020.1,17.7,0000.0,0008.36,0004.58,0004.35
2024-02-05 13:57:00,SystemResetWarning,0829.1,4.99,000.00,018.4,018.1,000.0,027.0,020.4,17.7,0000.0,0009.09,0004.61,0004.37
2024-02-05 13:58:00,SystemResetWarning,0829.1,5.01,000.00,018.6,018.8,000.0,027.1,020.8,17.5,0000.0,0009.40,0004.62,0004.37
2024-02-05 13:59:00,SystemResetWarning,0829.1,4.99,000.00,018.7,018.9,000.0,027.0,020.8,17.3,0000.0,0009.52,0004.65,0004.36
